Flag for Finland Weather past 2 weeks in Helsinki, Finland

Now
34 °F

Overcast.


Feels Like: 25 °F
Forecast: 33 / 35 °F
Wind: 13 mph from East

Location: Helsinki Malmi Airport

Current Time: Jan 31, 2015 at 2:26:42 AM

Latest Report: Jan 31, 2015 at 1:50 AM


Visibility: N/A

Pressure: 29.24 "Hg

Humidity: 87%

Dew point: 30 °F

Location of HelsinkiLocation

Historic Weather in Helsinki — Graph

°F

Helsinki temperature yesterday

Maximum temperature yesterday: 34 °F (at 12:20 AM)
Minimum temperature yesterday: 30 °F (at 8:20 PM)
Average temperature yesterday: 33 °F

Past Weeks' High & Low Weather Summary

 TemperatureHumidityPressure
High39 °F (Jan 16, 1:20 PM)100% (Jan 16, 4:50 AM)30.42 "Hg (Jan 16, 4:50 AM)
Low14 °F (Jan 21, 9:20 PM)65% (Jan 27, 12:50 PM)29.09 "Hg (Jan 29, 1:20 PM)
Average30 °F86%29.84 "Hg
* Reported Jan 16 1:20 AM — Jan 31 1:20 AM, Helsinki, Weather by CustomWeather, © 2014

Note: Actual official high and low records may vary slightly from our data, if they occured in-between our weather recording intervals... More about our weather records

Advertising

Helsinki weather history for previous 24 hours

 ConditionsComfort  
Time TempWeatherWind HumidityBarometerVisibility
1:20 AM
Jan 31
34 °FOvercast.13 mph87%29.24 "HgN/A
12:50 AM34 °FOvercast.14 mph87%29.24 "HgN/A
12:20 AM34 °FMostly cloudy.10 mph87%29.24 "HgN/A
11:20 PM
Jan 30
32 °FPassing clouds.12 mph93%29.24 "HgN/A
10:50 PM32 °FPassing clouds.10 mph93%29.27 "HgN/A
10:20 PM32 °FPassing clouds.10 mph87%29.24 "HgN/A
9:50 PM30 °FClear.8 mph86%29.24 "Hg10 mi
9:20 PM30 °FClear.8 mph80%29.27 "Hg10 mi
8:50 PM30 °FClear.7 mph80%29.27 "Hg10 mi
8:20 PM30 °FPassing clouds.7 mph80%29.27 "HgN/A
7:50 PM32 °FPassing clouds.8 mph80%29.27 "HgN/A
7:20 PM32 °FPassing clouds.7 mph80%29.27 "HgN/A
6:50 PM32 °FPassing clouds.9 mph75%29.27 "HgN/A
6:20 PM32 °FPassing clouds.9 mph75%29.27 "HgN/A
5:50 PM32 °FPassing clouds.9 mph75%29.24 "HgN/A
5:20 PM32 °FPassing clouds.7 mph80%29.24 "HgN/A
4:50 PM32 °FPassing clouds.7 mph80%29.24 "HgN/A
4:20 PM32 °FPassing clouds.7 mph80%29.24 "HgN/A
3:50 PM32 °FPassing clouds.7 mph80%29.24 "HgN/A
3:20 PM34 °FPassing clouds.9 mph75%29.24 "HgN/A
2:50 PM34 °FPassing clouds.12 mph75%29.24 "HgN/A
2:20 PM34 °FScattered clouds.9 mph75%29.24 "HgN/A
1:50 PM34 °FPartly sunny.12 mph81%29.24 "HgN/A
1:20 PM34 °FBroken clouds.12 mph81%29.24 "HgN/A
12:50 PM34 °FPartly sunny.12 mph81%29.24 "HgN/A
12:20 PM34 °FPartly sunny.9 mph81%29.24 "HgN/A
11:50 AM34 °FPartly sunny.8 mph81%29.24 "HgN/A
11:20 AM34 °FPartly sunny.10 mph81%29.21 "HgN/A
10:50 AM34 °FBroken clouds.9 mph81%29.21 "HgN/A
10:20 AM34 °FPartly sunny.9 mph81%29.21 "HgN/A
9:50 AM34 °FBroken clouds.10 mph81%29.21 "HgN/A
9:20 AM34 °FBroken clouds.10 mph87%29.21 "HgN/A
8:50 AM34 °FBroken clouds.12 mph87%29.18 "HgN/A
8:20 AM34 °FPartly cloudy.12 mph81%29.18 "HgN/A
7:50 AM34 °FPassing clouds.9 mph81%29.18 "HgN/A
7:20 AM34 °FOvercast.8 mph81%29.18 "HgN/A
6:50 AM34 °FPassing clouds.9 mph81%29.18 "HgN/A
6:20 AM34 °FPassing clouds.12 mph81%29.18 "HgN/A
5:50 AM34 °FOvercast.9 mph81%29.18 "HgN/A
5:20 AM34 °FMostly cloudy.9 mph81%29.18 "HgN/A
4:50 AM34 °FOvercast.8 mph81%29.15 "HgN/A
4:20 AM34 °FOvercast.9 mph87%29.15 "HgN/A
3:50 AM34 °FPassing clouds.8 mph87%29.15 "HgN/A
3:20 AM34 °FOvercast.8 mph87%29.15 "HgN/A
2:50 AM34 °FOvercast.7 mph87%29.15 "HgN/A
2:20 AM34 °FOvercast.8 mph87%29.15 "HgN/A
Weather by CustomWeather, © 2014

See weather overviewHow to use our weather pages